Location: Rounton
(54.4000°N, 1.3500°W)
Time: 06:03:55
(UTC+01:00)

deb Agena D - Pass Details

Date: 10 June 2023
Orbit: 996 x 1023 km, 100.1° (Epoch: 29 September)

Event Time Altitude Azimuth Distance (km) Brightness Sun altitude
Exits shadow 00:36:13 12° 146° (SE) 2,611 ? -12.4°
Maximum altitude 00:41:57 67° 66° (ENE) 1,080 ? -12.5°
Drops below altitude 10° 00:48:08 10° 345° (NNW) 2,780 ? -12.5°
Sets 00:50:37 0° 343° (NNW) 3,732 ? -12.6°
